Location: Katowice
(50.2611°N, 19.0242°E)
Time: 23:37:30
(UTC+02:00)

A-11 Canister half - Pass Details

Date: 22 July 2019
Orbit: 1526 x 1683 km, 47.3° (Epoch: 18 August)

Event Time Altitude Azimuth Distance (km) Brightness Sun altitude
Rises 04:22:05 0° 288° (WNW) 4,808 11.3 -5.4°
Reaches altitude 10° 04:26:01 10° 275° (W) 3,793 10.7 -4.9°
Maximum altitude 04:32:57 23° 228° (SW) 2,844 9.8 -4.1°
Drops below altitude 10° 04:39:45 10° 181° (S) 3,706 10.7 -3.2°
Sets 04:43:34 0° 168° (SSE) 4,673 11.3 -2.7°
